sat.trackr.live / text

‹ back to catalog

STARLINK-36465

NORAD 67423 · 2026-005V

PAYLOAD ACTIVE UNKNOWN

§ Identity

Operator
Country
US
Launch date
2026-01-12
Launch site
AFETR
Launch vehicle
Mass (kg)
RCS (m²)

Purposes: comms

External: N2YO · Heavens-Above · Gunter

§ Orbital elements

Epoch: 2026-05-25T01:25:01.223616Z

Period
94.27 min
Inclination
43.0025°
Eccentricity
0.0002230
Mean motion
15.27544075 rev/d
Perigee alt
481.6 km
Apogee alt
484.7 km
Semi-major
6,861.3 km
B*
5.4795e-4
RAAN
166.9115°
Arg perigee
258.1873°
Mean anomaly
101.8728°
Rev number
2,037

§ Raw data

STARLINK-364651 67423U 26005V   26145.05904194  .00014830  00000+0  54795-3 0  99932 67423  43.0025 166.9115 0002230 258.1873 101.8728 15.27544075 20377

JSON: /api/v1/satellites/67423 · /tle

For live sub-satellite position, see the globe view (requires WebGL).

§ Visibility from observer

Set your observer location to see the next 7 days of passes ≥ 10°. The values pass through the URL so the page stays shareable.

No JS? Fill the form by hand. The geolocation button needs JavaScript.